Hibbing, MN

12:30 PM CDT on September 19, 2017 (GMT -0500)
Chisholm-hibbing

Weather History for KHIB - October, 2013

Change the Weather History Date:

Friday, October 11, 2013

  Actual Average Record
Temperature  
Mean Temperature 62 °F -  
Max Temperature 72 °F 54 °F 87 °F (2015)
Min Temperature 52 °F 34 °F 17 °F (1987)
Degree Days  
Heating Degree Days 3    
Growing Degree Days 12 (Base 50)    
Moisture  
Dew Point 51 °F    
Average Humidity 71    
Maximum Humidity 90    
Minimum Humidity 49    
Precipitation  
Precipitation 0.18 in - - ()
Sea Level Pressure  
Sea Level Pressure 29.78 in    
Wind  
Wind Speed 10 mph (SE)    
Max Wind Speed 21 mph    
Max Gust Speed 33 mph    
Visibility 9 miles    
Events Rain , Thunderstorm    
Averages and records for this station are not official NWS values.
T = Trace of Precipitation, MM = Missing Value Source: NWS Daily Summary

Daily Weather History Graph

Daily Weather History Graph

Search for Another Location

Airport or City:

Trip Planner

Search our weather history database for the weather conditions in past years. The results will help you decide how hot, cold, wet, or windy it might be!

Date:

Astronomy

Oct. 11, 2013 Rise Set
Actual Time 7:24 AM CDT 6:30 PM CDT
Civil Twilight 6:53 AM CDT 7:01 PM CDT
Nautical Twilight 6:18 AM CDT 7:36 PM CDT
Astronomical Twilight 5:42 AM CDT 8:12 PM CDT
Moon 2:19 PM CDT (10/11) No Moon Set
Length of Visible Light 12h 07m
Length of Day
11h 06m
Waxing Crescent, 47% of the Moon is Illuminated
Oct 11
Waxing Crescent
Oct 11
First Quarter
Oct 18
Full
Oct 26
Last Quarter
Nov 3
New

Hourly Weather History & Observations

Time (CDT) Temp. Dew Point Humidity Pressure Visibility Wind Dir Wind Speed Gust Speed Precip Events Conditions
12:53 AM 52.0 °F 44.1 °F 74% 29.92 in 10.0 mi SE 8.1 mph - N/A   Clear
1:53 AM 53.1 °F 45.0 °F 74% 29.93 in 10.0 mi SE 6.9 mph - N/A   Clear
2:53 AM 53.1 °F 45.0 °F 74% 29.93 in 10.0 mi SE 3.5 mph - N/A   Clear
3:53 AM 54.0 °F 46.0 °F 75% 29.92 in 10.0 mi SE 8.1 mph - N/A   Clear
4:53 AM 52.0 °F 46.0 °F 80% 29.94 in 10.0 mi SSE 5.8 mph - N/A   Clear
5:53 AM 52.0 °F 46.0 °F 80% 29.92 in 10.0 mi SE 6.9 mph - N/A   Clear
6:53 AM 53.1 °F 46.9 °F 80% 29.93 in 10.0 mi SSE 8.1 mph - N/A   Clear
7:53 AM 53.1 °F 46.9 °F 80% 29.92 in 10.0 mi SE 6.9 mph - N/A   Clear
8:53 AM 55.0 °F 48.0 °F 77% 29.90 in 10.0 mi SE 11.5 mph - N/A   Clear
9:53 AM 59.0 °F 50.0 °F 72% 29.90 in 10.0 mi SSE 11.5 mph - N/A   Clear
10:53 AM 63.0 °F 52.0 °F 67% 29.86 in 10.0 mi SE 11.5 mph - N/A   Clear
11:53 AM 68.0 °F 53.1 °F 59% 29.83 in 10.0 mi SSE 17.3 mph 28.8 mph N/A   Clear
12:53 PM 71.1 °F 53.1 °F 53% 29.78 in 10.0 mi SE 20.7 mph 33.4 mph N/A   Clear
1:53 PM 72.0 °F 52.0 °F 49% 29.74 in 10.0 mi SSE 17.3 mph 31.1 mph N/A   Clear
2:53 PM 70.0 °F 51.1 °F 51% 29.72 in 10.0 mi SSE 16.1 mph 29.9 mph N/A   Clear
3:53 PM 71.1 °F 52.0 °F 51% 29.71 in 10.0 mi SE 19.6 mph 29.9 mph N/A   Clear
4:53 PM 69.1 °F 51.1 °F 53% 29.71 in 10.0 mi SE 16.1 mph 25.3 mph N/A   Clear
5:53 PM 66.9 °F 51.1 °F 57% 29.68 in 10.0 mi SE 13.8 mph 25.3 mph 0.00 in Thunderstorm Thunderstorm
6:17 PM 62.6 °F 55.4 °F 77% 29.71 in 8.0 mi Calm Calm - 0.01 in Rain , Thunderstorm Light Rain
6:53 PM 62.1 °F 55.0 °F 78% 29.69 in 10.0 mi ESE 6.9 mph - 0.01 in Rain Light Rain
7:53 PM 62.1 °F 54.0 °F 75% 29.66 in 10.0 mi SE 12.7 mph - N/A   Overcast
8:53 PM 62.1 °F 53.1 °F 72% 29.64 in 10.0 mi SE 15.0 mph 21.9 mph N/A   Mostly Cloudy
9:53 PM 63.0 °F 53.1 °F 70% 29.61 in 10.0 mi SE 15.0 mph 26.5 mph N/A   Partly Cloudy
10:53 PM 63.0 °F 53.1 °F 70% 29.59 in 10.0 mi SE 12.7 mph - N/A   Mostly Cloudy
11:43 PM 60.8 °F 55.4 °F 82% 29.63 in 3.0 mi SSW 11.5 mph 25.3 mph 0.09 in Rain Heavy Rain
11:50 PM 59.0 °F 55.4 °F 88% 29.62 in 2.0 mi Variable 6.9 mph 20.7 mph 0.14 in Rain Heavy Rain
11:53 PM 59.0 °F 55.9 °F 90% 29.62 in 2.5 mi Variable 6.9 mph 20.7 mph 0.17 in Rain Heavy Rain